BEL1950 LEBL-EBBR

Flight info

Callsign BEL1950
Flight time N/A
Altitude 36000
Route OLOXO DCT OKABI DCT TOU DCT ADABI DCT BOKNO UN858 VANAD UN874 BAMES UT191 PODEM UN873 BAZOS DCT BELDI DCT VEKIN Z173 ARVOL
Aircraft A320/M-SDE2E3FGHIJ1RWXY/LB1

Departure

Time 2026-05-08 07:07
Airport Josep Tarradellas Barcelona-El Prat Airport (LEBL)

Arrival

Time N/A
Airport Brussels Airport (EBBR)
Time Latitude Longitude Altitude Speed Heading
2026-05-08 06:17 41.29191 2.08129 18 ft 0 kts 156°
2026-05-08 06:44 41.29196 2.08127 17 ft 1 kts 156°
2026-05-08 06:44 41.29203 2.08122 17 ft 1 kts 156°
2026-05-08 06:44 41.29210 2.08118 19 ft 1 kts 156°
2026-05-08 06:45 41.29218 2.08114 19 ft 1 kts 155°
2026-05-08 06:45 41.29229 2.08107 18 ft 2 kts 146°
2026-05-08 06:45 41.29237 2.08098 20 ft 2 kts 122°
2026-05-08 06:45 41.29239 2.08072 18 ft 2 kts 69°
2026-05-08 06:51 41.29242 2.08075 19 ft 1 kts 44°
2026-05-08 06:52 41.29264 2.08099 18 ft 7 kts 39°
2026-05-08 06:52 41.29267 2.08102 18 ft 0 kts 39°
2026-05-08 06:56 41.29268 2.08103 19 ft 1 kts 39°
2026-05-08 06:56 41.29286 2.08122 18 ft 6 kts 39°
2026-05-08 06:57 41.29317 2.08173 17 ft 8 kts 60°
2026-05-08 06:57 41.29339 2.08233 17 ft 8 kts 63°
2026-05-08 06:57 41.29369 2.08317 16 ft 11 kts 64°
2026-05-08 06:57 41.29404 2.08349 14 ft 4 kts 14°
2026-05-08 06:58 41.29435 2.08339 15 ft 6 kts 339°
2026-05-08 06:58 41.29477 2.08315 15 ft 8 kts 335°
2026-05-08 06:58 41.29533 2.08288 15 ft 9 kts 353°
2026-05-08 06:58 41.29581 2.08334 15 ft 10 kts 68°
2026-05-08 06:59 41.29610 2.08430 17 ft 12 kts 68°
2026-05-08 06:59 41.29595 2.08535 17 ft 12 kts 137°
2026-05-08 06:59 41.29502 2.08591 14 ft 17 kts 156°
2026-05-08 06:59 41.29385 2.08659 14 ft 19 kts 156°
2026-05-08 07:00 41.29261 2.08733 15 ft 21 kts 156°
2026-05-08 07:00 41.29125 2.08816 18 ft 22 kts 154°
2026-05-08 07:00 41.28984 2.08906 17 ft 22 kts 155°
2026-05-08 07:00 41.28956 2.08995 16 ft 8 kts 70°
2026-05-08 07:01 41.28977 2.09067 18 ft 9 kts 66°
2026-05-08 07:01 41.29007 2.09157 17 ft 12 kts 66°
2026-05-08 07:01 41.29046 2.09269 17 ft 14 kts 65°
2026-05-08 07:01 41.29089 2.09394 19 ft 15 kts 65°
2026-05-08 07:02 41.29138 2.09533 18 ft 18 kts 65°
2026-05-08 07:02 41.29195 2.09695 17 ft 20 kts 65°
2026-05-08 07:02 41.29253 2.09869 16 ft 20 kts 66°
2026-05-08 07:02 41.29262 2.09896 14 ft 0 kts 66°
2026-05-08 07:04 41.29265 2.09906 16 ft 4 kts 66°
2026-05-08 07:04 41.29282 2.09965 15 ft 9 kts 76°
2026-05-08 07:05 41.29267 2.10051 15 ft 10 kts 112°
2026-05-08 07:05 41.29238 2.10156 13 ft 14 kts 104°
2026-05-08 07:05 41.29255 2.10272 12 ft 6 kts 90°
2026-05-08 07:05 41.29229 2.10287 13 ft 5 kts 178°
2026-05-08 07:06 41.29202 2.10265 14 ft 5 kts 229°
2026-05-08 07:06 41.29188 2.10226 13 ft 0 kts 245°
2026-05-08 07:06 41.29104 2.09987 16 ft 71 kts 245°
2026-05-08 07:07 41.28785 2.09065 14 ft 145 kts 245°
2026-05-08 07:07 41.28330 2.07701 463 ft 169 kts 246°
2026-05-08 07:07 41.27633 2.06336 1086 ft 197 kts 231°
2026-05-08 07:07 41.26548 2.04971 1700 ft 216 kts 213°
2026-05-08 07:08 41.25289 2.04047 3082 ft 207 kts 211°
2026-05-08 07:08 41.24131 2.02964 4199 ft 209 kts 218°
2026-05-08 07:08 41.22926 2.01670 4846 ft 230 kts 208°
2026-05-08 07:08 41.21445 2.01126 5307 ft 227 kts 174°
2026-05-08 07:09 41.19912 2.01606 5687 ft 227 kts 159°
2026-05-08 07:09 41.18393 2.02175 5878 ft 229 kts 175°
2026-05-08 07:09 41.16834 2.01792 5993 ft 233 kts 206°
2026-05-08 07:09 41.15631 2.00375 6004 ft 236 kts 238°
2026-05-08 07:10 41.15159 1.98313 6007 ft 237 kts 271°
2026-05-08 07:10 41.15579 1.96225 6052 ft 239 kts 304°
2026-05-08 07:10 41.16804 1.94759 6484 ft 243 kts 335°
2026-05-08 07:10 41.18404 1.93881 7168 ft 252 kts 339°
2026-05-08 07:11 41.20013 1.92923 8043 ft 256 kts 332°
2026-05-08 07:11 41.21542 1.91676 8913 ft 260 kts 324°
2026-05-08 07:11 41.23013 1.90242 9595 ft 265 kts 325°
2026-05-08 07:11 41.24587 1.88892 9891 ft 281 kts 327°
2026-05-08 07:12 41.26293 1.87437 9978 ft 296 kts 327°
2026-05-08 07:12 41.28020 1.85974 9987 ft 294 kts 327°
2026-05-08 07:12 41.29749 1.84521 10003 ft 294 kts 327°
2026-05-08 07:12 41.31507 1.83051 10070 ft 305 kts 327°
2026-05-08 07:13 41.33375 1.81495 10286 ft 329 kts 327°
2026-05-08 07:13 41.35363 1.79845 10813 ft 342 kts 327°
2026-05-08 07:13 41.37394 1.78163 11660 ft 345 kts 327°
2026-05-08 07:13 41.39442 1.76467 12515 ft 348 kts 327°
2026-05-08 07:14 41.41509 1.74756 13364 ft 351 kts 327°
2026-05-08 07:14 41.43592 1.73029 14147 ft 355 kts 327°
2026-05-08 07:14 41.45696 1.71280 14888 ft 358 kts 327°
2026-05-08 07:14 41.47825 1.69509 15629 ft 362 kts 327°
2026-05-08 07:15 41.49945 1.67750 16383 ft 366 kts 328°
2026-05-08 07:15 41.52233 1.66218 17106 ft 371 kts 338°
2026-05-08 07:15 41.54730 1.65277 17790 ft 376 kts 349°
2026-05-08 07:15 41.57351 1.64887 18463 ft 381 kts 354°
2026-05-08 07:16 41.60003 1.64586 19061 ft 384 kts 353°
2026-05-08 07:16 41.62674 1.64246 19676 ft 387 kts 352°
2026-05-08 07:16 41.65362 1.63859 20278 ft 390 kts 351°
2026-05-08 07:16 41.68069 1.63442 20876 ft 393 kts 350°
2026-05-08 07:17 41.70796 1.63010 21477 ft 396 kts 349°
2026-05-08 07:17 41.73543 1.62571 22054 ft 399 kts 349°
2026-05-08 07:17 41.76312 1.62129 22648 ft 402 kts 349°
2026-05-08 07:17 41.79105 1.61684 23233 ft 405 kts 349°
2026-05-08 07:18 41.81915 1.61239 23774 ft 408 kts 348°
2026-05-08 07:18 41.84747 1.60791 24257 ft 411 kts 348°
2026-05-08 07:18 41.87596 1.60338 24715 ft 414 kts 348°
2026-05-08 07:18 41.90467 1.59882 25173 ft 417 kts 348°
2026-05-08 07:19 41.93358 1.59423 25620 ft 420 kts 348°
2026-05-08 07:19 41.96267 1.58961 26050 ft 423 kts 348°
2026-05-08 07:19 41.99199 1.58497 26483 ft 425 kts 348°
2026-05-08 07:19 42.02150 1.58029 26924 ft 428 kts 348°
2026-05-08 07:20 42.05116 1.57558 27339 ft 431 kts 348°
2026-05-08 07:20 42.08103 1.57082 27746 ft 433 kts 348°
2026-05-08 07:20 42.11102 1.56605 28146 ft 435 kts 348°
2026-05-08 07:20 42.14122 1.56123 28542 ft 438 kts 348°
2026-05-08 07:21 42.17153 1.55639 28911 ft 440 kts 348°
2026-05-08 07:21 42.20208 1.55153 29283 ft 443 kts 348°
2026-05-08 07:21 42.23274 1.54665 29662 ft 444 kts 348°
2026-05-08 07:21 42.26302 1.54182 30043 ft 446 kts 348°
2026-05-08 07:22 42.29392 1.53687 30358 ft 448 kts 347°
2026-05-08 07:22 42.32493 1.53185 30676 ft 450 kts 347°
2026-05-08 07:22 42.35602 1.52679 30975 ft 452 kts 347°
2026-05-08 07:22 42.38731 1.52169 31321 ft 453 kts 347°
2026-05-08 07:23 42.41853 1.51660 31723 ft 452 kts 346°
2026-05-08 07:23 42.44974 1.51152 32114 ft 451 kts 346°
2026-05-08 07:23 42.48090 1.50644 32513 ft 450 kts 346°
2026-05-08 07:23 42.51194 1.50138 32901 ft 449 kts 346°
2026-05-08 07:24 42.54285 1.49635 33254 ft 447 kts 346°
2026-05-08 07:24 42.57373 1.49131 33567 ft 447 kts 345°
2026-05-08 07:24 42.60466 1.48626 33888 ft 447 kts 345°
2026-05-08 07:24 42.63557 1.48124 34174 ft 447 kts 345°
2026-05-08 07:25 42.66639 1.47623 34425 ft 446 kts 345°
2026-05-08 07:25 42.69716 1.47124 34708 ft 445 kts 345°
2026-05-08 07:25 42.75868 1.46125 35297 ft 444 kts 345°
2026-05-08 07:26 42.78930 1.45630 35582 ft 442 kts 345°
2026-05-08 07:26 42.81981 1.45133 35796 ft 442 kts 345°
2026-05-08 07:26 42.85041 1.44634 35935 ft 443 kts 344°
2026-05-08 07:27 42.91147 1.43637 35962 ft 440 kts 344°
2026-05-08 07:27 42.97218 1.42649 35953 ft 439 kts 344°
2026-05-08 07:28 43.03241 1.41663 35952 ft 439 kts 344°
2026-05-08 07:28 43.09304 1.40670 35951 ft 439 kts 344°
2026-05-08 07:29 43.15363 1.39678 35955 ft 438 kts 345°
2026-05-08 07:29 43.21414 1.38687 35956 ft 438 kts 345°
2026-05-08 07:30 43.27461 1.37694 35954 ft 437 kts 345°
2026-05-08 07:30 43.33501 1.36700 35962 ft 437 kts 345°
2026-05-08 07:31 43.39537 1.35706 35965 ft 437 kts 345°
2026-05-08 07:31 43.45565 1.34711 35968 ft 436 kts 345°
2026-05-08 07:32 43.51586 1.33716 35966 ft 435 kts 345°
2026-05-08 07:32 43.57596 1.32721 35966 ft 435 kts 345°
2026-05-08 07:33 43.63594 1.31726 35964 ft 434 kts 345°
2026-05-08 07:33 43.69559 1.30613 35961 ft 430 kts 341°
2026-05-08 07:34 43.75414 1.28991 35963 ft 429 kts 341°
2026-05-08 07:34 43.81273 1.27427 35964 ft 429 kts 342°
2026-05-08 07:35 43.87146 1.25920 35966 ft 429 kts 342°
2026-05-08 07:35 43.93014 1.24426 35972 ft 429 kts 342°
2026-05-08 07:36 43.98876 1.22930 36205 ft 425 kts 342°
2026-05-08 07:36 44.00796 1.22441 36440 ft 423 kts 342°
2026-05-08 07:36 44.03713 1.21690 36328 ft 429 kts 342°
2026-05-08 07:36 44.06651 1.20930 36082 ft 429 kts 342°
2026-05-08 07:37 44.09568 1.20179 35970 ft 425 kts 342°
2026-05-08 07:37 44.15393 1.18671 35968 ft 427 kts 342°
2026-05-08 07:38 44.21227 1.17153 35961 ft 426 kts 343°
2026-05-08 07:38 44.27051 1.15634 35964 ft 426 kts 343°
2026-05-08 07:39 44.32873 1.14111 35965 ft 425 kts 343°
2026-05-08 07:39 44.38690 1.12586 35975 ft 426 kts 343°
2026-05-08 07:40 44.44517 1.11054 35972 ft 426 kts 343°
2026-05-08 07:40 44.50300 1.09529 35981 ft 426 kts 343°
2026-05-08 07:41 44.56119 1.07991 35978 ft 425 kts 343°
2026-05-08 07:41 44.61936 1.06451 35983 ft 425 kts 343°
2026-05-08 07:42 44.67752 1.04908 35982 ft 425 kts 343°
2026-05-08 07:42 44.73558 1.03364 35977 ft 425 kts 343°
2026-05-08 07:43 44.79367 1.01814 35980 ft 425 kts 343°
2026-05-08 07:43 44.85167 1.00265 35974 ft 424 kts 343°
2026-05-08 07:44 44.90967 0.98712 35974 ft 424 kts 343°
2026-05-08 07:44 44.96761 0.97157 35981 ft 423 kts 343°
2026-05-08 07:45 45.02547 0.95601 35987 ft 423 kts 343°
2026-05-08 07:45 45.08331 0.94042 35982 ft 423 kts 343°
2026-05-08 07:46 45.14117 0.92479 35986 ft 423 kts 343°
2026-05-08 07:46 45.19866 0.90923 35986 ft 423 kts 344°
2026-05-08 07:47 45.25656 0.89353 35988 ft 424 kts 344°
2026-05-08 07:47 45.31443 0.87780 35987 ft 424 kts 344°
2026-05-08 07:48 45.37224 0.86206 36060 ft 422 kts 344°
2026-05-08 07:48 45.40102 0.85424 36425 ft 419 kts 344°
2026-05-08 07:48 45.42977 0.84641 36527 ft 423 kts 344°
2026-05-08 07:48 45.45890 0.83841 36357 ft 428 kts 344°
2026-05-08 07:49 45.48810 0.83041 36099 ft 426 kts 344°
2026-05-08 07:49 45.51705 0.82250 35982 ft 422 kts 344°
2026-05-08 07:49 45.54590 0.81460 35979 ft 423 kts 344°
2026-05-08 07:50 45.60396 0.79861 35975 ft 425 kts 344°
2026-05-08 07:50 45.66198 0.78264 35975 ft 425 kts 344°
2026-05-08 07:51 45.72000 0.76664 35979 ft 425 kts 344°
2026-05-08 07:51 45.77811 0.75059 35979 ft 425 kts 344°
2026-05-08 07:52 45.83612 0.73454 35980 ft 425 kts 344°
2026-05-08 07:52 45.89414 0.71844 35976 ft 425 kts 344°
2026-05-08 07:53 45.95214 0.70231 35973 ft 424 kts 344°
2026-05-08 07:53 46.01015 0.68615 35972 ft 425 kts 344°
2026-05-08 07:54 46.06187 0.67170 35979 ft 425 kts 344°
2026-05-08 07:54 46.11987 0.65548 35983 ft 425 kts 344°
2026-05-08 07:55 46.17792 0.63921 35987 ft 425 kts 344°
2026-05-08 07:55 46.23558 0.62299 35983 ft 425 kts 344°
2026-05-08 07:56 46.29363 0.60663 35988 ft 425 kts 344°
2026-05-08 07:56 46.35176 0.59022 35989 ft 425 kts 344°
2026-05-08 07:57 46.40986 0.57378 35989 ft 426 kts 344°
2026-05-08 07:57 46.46799 0.55729 35993 ft 426 kts 344°
2026-05-08 07:58 46.52635 0.54180 35999 ft 428 kts 349°
2026-05-08 07:58 46.58636 0.54061 35992 ft 436 kts
2026-05-08 07:59 46.64639 0.55769 36000 ft 441 kts
2026-05-08 07:59 46.70615 0.57843 35993 ft 442 kts
2026-05-08 08:00 46.76603 0.59853 35997 ft 442 kts
2026-05-08 08:00 46.82596 0.61832 35999 ft 442 kts
2026-05-08 08:01 46.88594 0.63811 36002 ft 442 kts
2026-05-08 08:01 46.94602 0.65800 36004 ft 443 kts
2026-05-08 08:02 47.00573 0.67783 36006 ft 443 kts
2026-05-08 08:02 47.06610 0.69425 36005 ft 439 kts
2026-05-08 08:03 47.12681 0.70074 36010 ft 437 kts 359°
2026-05-08 08:03 47.18757 0.70674 36015 ft 437 kts 359°
2026-05-08 08:04 47.24829 0.71296 36017 ft 438 kts 359°
2026-05-08 08:04 47.30906 0.71930 36018 ft 438 kts 359°
2026-05-08 08:05 47.36984 0.72566 36021 ft 438 kts 359°
2026-05-08 08:05 47.43062 0.73206 36017 ft 438 kts 359°
2026-05-08 08:06 47.49143 0.74099 36022 ft 442 kts
2026-05-08 08:06 47.55121 0.76450 36013 ft 448 kts 14°
2026-05-08 08:07 47.61022 0.79420 36010 ft 448 kts 14°
2026-05-08 08:07 47.66936 0.82374 36010 ft 448 kts 14°
2026-05-08 08:08 47.72858 0.85305 36019 ft 449 kts 14°
2026-05-08 08:08 47.78791 0.88240 36029 ft 450 kts 14°
2026-05-08 08:09 47.84732 0.91187 36021 ft 450 kts 14°
2026-05-08 08:09 47.90675 0.94176 36024 ft 451 kts 14°
2026-05-08 08:10 47.96625 0.97190 36052 ft 452 kts 15°
2026-05-08 08:10 48.02585 1.00213 36033 ft 453 kts 15°
2026-05-08 08:11 48.08549 1.03244 36038 ft 453 kts 15°
2026-05-08 08:11 48.14522 1.06286 36037 ft 454 kts 15°
2026-05-08 08:12 48.20498 1.09337 36037 ft 454 kts 15°
2026-05-08 08:12 48.26451 1.12374 36040 ft 455 kts 15°
2026-05-08 08:13 48.32455 1.15432 36044 ft 456 kts 15°
2026-05-08 08:13 48.38470 1.18504 36043 ft 457 kts 15°
2026-05-08 08:14 48.44493 1.21589 36052 ft 457 kts 15°
2026-05-08 08:14 48.50525 1.24688 36055 ft 458 kts 15°
2026-05-08 08:15 48.56561 1.27794 36057 ft 459 kts 15°
2026-05-08 08:15 48.62621 1.30853 36063 ft 459 kts 15°
2026-05-08 08:16 48.68691 1.33901 36065 ft 460 kts 15°
2026-05-08 08:16 48.74765 1.36966 36072 ft 461 kts 15°
2026-05-08 08:17 48.80847 1.40047 36077 ft 461 kts 15°
2026-05-08 08:17 48.86932 1.43140 36077 ft 461 kts 15°
2026-05-08 08:18 48.93020 1.46242 36075 ft 462 kts 16°
2026-05-08 08:18 48.99173 1.48989 36078 ft 459 kts
2026-05-08 08:19 49.05466 1.50544 36078 ft 458 kts
2026-05-08 08:19 49.11772 1.51986 36076 ft 458 kts
2026-05-08 08:20 49.18078 1.53445 36077 ft 459 kts
2026-05-08 08:20 49.24309 1.55570 36078 ft 463 kts 19°
2026-05-08 08:20 49.27200 1.57759 36073 ft 466 kts 30°
2026-05-08 08:21 49.29826 1.60694 36071 ft 469 kts 40°
2026-05-08 08:21 49.34503 1.67667 36072 ft 470 kts 43°
2026-05-08 08:22 49.39196 1.74644 36072 ft 470 kts 42°
2026-05-08 08:22 49.43894 1.81532 36077 ft 470 kts 41°
2026-05-08 08:23 49.48659 1.88516 36078 ft 470 kts 41°
2026-05-08 08:23 49.53354 1.95426 36082 ft 470 kts 41°
2026-05-08 08:24 49.58072 2.02402 36080 ft 470 kts 42°
2026-05-08 08:24 49.62820 2.09446 36085 ft 470 kts 42°
2026-05-08 08:25 49.67498 2.16409 36081 ft 470 kts 42°
2026-05-08 08:25 49.72199 2.23423 36082 ft 470 kts 42°
2026-05-08 08:26 49.76902 2.30446 35961 ft 470 kts 42°
2026-05-08 08:26 49.79248 2.33954 35636 ft 469 kts 42°
2026-05-08 08:26 49.80834 2.36327 35218 ft 471 kts 42°
2026-05-08 08:26 49.83196 2.39863 34478 ft 473 kts 42°
2026-05-08 08:27 49.85568 2.43422 33558 ft 478 kts 42°
2026-05-08 08:27 49.87951 2.47006 32849 ft 475 kts 42°
2026-05-08 08:27 49.90318 2.50568 32084 ft 474 kts 42°
2026-05-08 08:27 49.92679 2.54126 31346 ft 472 kts 43°
2026-05-08 08:28 49.95014 2.57652 30848 ft 466 kts 43°
2026-05-08 08:28 49.97322 2.61142 30300 ft 460 kts 43°
2026-05-08 08:28 49.99603 2.64602 29703 ft 455 kts 43°
2026-05-08 08:28 50.01849 2.68015 29157 ft 448 kts 43°
2026-05-08 08:29 50.04061 2.71385 28619 ft 442 kts 43°
2026-05-08 08:29 50.06240 2.74709 28064 ft 436 kts 43°
2026-05-08 08:29 50.08392 2.77998 27556 ft 431 kts 43°
2026-05-08 08:29 50.10518 2.81252 27034 ft 426 kts 43°
2026-05-08 08:30 50.12617 2.84468 26512 ft 421 kts 43°
2026-05-08 08:30 50.14662 2.87608 26005 ft 417 kts 43°
2026-05-08 08:30 50.18748 2.93890 24986 ft 409 kts 43°
2026-05-08 08:31 50.20765 2.96996 24476 ft 406 kts 43°
2026-05-08 08:31 50.22764 3.00081 23975 ft 403 kts 43°
2026-05-08 08:31 50.24752 3.03151 23431 ft 400 kts 43°
2026-05-08 08:31 50.26716 3.06187 22933 ft 395 kts 43°
2026-05-08 08:32 50.28659 3.09193 22446 ft 390 kts 44°
2026-05-08 08:32 50.30577 3.12162 21956 ft 386 kts 44°
2026-05-08 08:32 50.32473 3.15101 21465 ft 382 kts 44°
2026-05-08 08:32 50.34349 3.18012 20996 ft 378 kts 44°
2026-05-08 08:33 50.36208 3.20898 20515 ft 375 kts 44°
2026-05-08 08:33 50.38084 3.23816 20033 ft 392 kts 44°
2026-05-08 08:33 50.40063 3.26892 19525 ft 408 kts 44°
2026-05-08 08:33 50.42092 3.30045 18994 ft 412 kts 44°
2026-05-08 08:34 50.44126 3.33211 18464 ft 411 kts 44°
2026-05-08 08:34 50.46144 3.36360 17898 ft 406 kts 45°
2026-05-08 08:34 50.48128 3.39468 17374 ft 399 kts 45°
2026-05-08 08:34 50.50074 3.42528 16860 ft 393 kts 45°
2026-05-08 08:35 50.51989 3.45548 16352 ft 387 kts 44°
2026-05-08 08:35 50.53877 3.48519 15853 ft 381 kts 43°
2026-05-08 08:35 50.55902 3.51168 15362 ft 377 kts 34°
2026-05-08 08:35 50.58048 3.53490 14875 ft 372 kts 33°
2026-05-08 08:36 50.60183 3.55764 14384 ft 369 kts 33°
2026-05-08 08:36 50.62289 3.58024 13940 ft 364 kts 33°
2026-05-08 08:36 50.64332 3.60250 13771 ft 350 kts 33°
2026-05-08 08:36 50.66290 3.62408 13633 ft 337 kts 34°
2026-05-08 08:37 50.68167 3.64492 13503 ft 324 kts 34°
2026-05-08 08:37 50.69973 3.66501 13373 ft 311 kts 34°
2026-05-08 08:37 50.71717 3.68444 13130 ft 304 kts 34°
2026-05-08 08:37 50.73440 3.70362 12752 ft 302 kts 34°
2026-05-08 08:38 50.75151 3.72265 12374 ft 300 kts 34°
2026-05-08 08:38 50.76849 3.74155 11999 ft 298 kts 34°
2026-05-08 08:38 50.78537 3.76037 11619 ft 296 kts 34°
2026-05-08 08:38 50.80189 3.77883 11274 ft 294 kts 34°
2026-05-08 08:39 50.81853 3.79738 10902 ft 292 kts 35°
2026-05-08 08:39 50.83505 3.81581 10551 ft 290 kts 35°
2026-05-08 08:39 50.85148 3.83417 10197 ft 288 kts 35°
2026-05-08 08:39 50.86767 3.85273 9821 ft 287 kts 39°
2026-05-08 08:40 50.88190 3.87505 9217 ft 291 kts 52°
2026-05-08 08:40 50.89297 3.90179 8862 ft 287 kts 60°
2026-05-08 08:40 50.90282 3.92846 8723 ft 275 kts 60°
2026-05-08 08:40 50.91243 3.95441 8416 ft 271 kts 60°
2026-05-08 08:41 50.92180 3.98019 8072 ft 269 kts 65°
2026-05-08 08:41 50.92834 4.00772 7748 ft 266 kts 78°
2026-05-08 08:41 50.93121 4.03644 7416 ft 263 kts 85°
2026-05-08 08:41 50.93323 4.06525 7020 ft 264 kts 85°
2026-05-08 08:42 50.93526 4.09441 6549 ft 269 kts 84°
2026-05-08 08:42 50.93741 4.12377 6214 ft 267 kts 84°
2026-05-08 08:42 50.93964 4.15278 5888 ft 264 kts 84°
2026-05-08 08:42 50.94193 4.18138 5571 ft 260 kts 83°
2026-05-08 08:43 50.94421 4.20961 5254 ft 257 kts 83°
2026-05-08 08:43 50.94648 4.23767 4944 ft 256 kts 83°
2026-05-08 08:43 50.94871 4.26558 4617 ft 254 kts 83°
2026-05-08 08:43 50.95091 4.29324 4305 ft 252 kts 83°
2026-05-08 08:44 50.95309 4.32063 4000 ft 249 kts 83°
2026-05-08 08:44 50.95526 4.34803 3596 ft 252 kts 83°
2026-05-08 08:44 50.95746 4.37584 3295 ft 258 kts 83°
2026-05-08 08:44 50.95970 4.40420 2970 ft 258 kts 83°
2026-05-08 08:45 50.96192 4.43224 2699 ft 256 kts 83°
2026-05-08 08:45 50.96414 4.46020 2301 ft 255 kts 83°
2026-05-08 08:45 50.96627 4.48736 2055 ft 247 kts 83°
2026-05-08 08:45 50.96838 4.51478 2005 ft 243 kts 83°
2026-05-08 08:46 50.97034 4.53985 1988 ft 215 kts 83°
2026-05-08 08:46 50.97198 4.56178 2011 ft 186 kts 88°
2026-05-08 08:46 50.96879 4.57949 2004 ft 157 kts 126°
2026-05-08 08:46 50.96096 4.58962 1993 ft 138 kts 152°
2026-05-08 08:47 50.95196 4.59333 2006 ft 136 kts 177°
2026-05-08 08:47 50.94281 4.59053 2014 ft 136 kts 204°
2026-05-08 08:47 50.93537 4.58127 2001 ft 139 kts 232°
2026-05-08 08:47 50.93067 4.56780 1999 ft 141 kts 246°
2026-05-08 08:48 50.92690 4.55364 1992 ft 140 kts 248°
2026-05-08 08:48 50.92315 4.53969 2000 ft 139 kts 246°
2026-05-08 08:48 50.91913 4.52565 1983 ft 138 kts 245°
2026-05-08 08:48 50.91518 4.51190 1987 ft 140 kts 245°
2026-05-08 08:49 50.91093 4.49719 2016 ft 162 kts 244°
2026-05-08 08:49 50.90582 4.47939 1991 ft 189 kts 244°
2026-05-08 08:49 50.90081 4.45938 2077 ft 205 kts 256°
2026-05-08 08:49 50.89983 4.43655 2434 ft 208 kts 278°
2026-05-08 08:50 50.90422 4.41467 2945 ft 211 kts 299°
2026-05-08 08:50 50.91091 4.39399 3455 ft 212 kts 289°
2026-05-08 08:50 50.91335 4.37092 3863 ft 215 kts 270°
2026-05-08 08:50 50.91220 4.34724 3989 ft 216 kts 266°
2026-05-08 08:51 50.91186 4.32352 3999 ft 215 kts 270°
2026-05-08 08:51 50.91176 4.29982 4001 ft 215 kts 270°
2026-05-08 08:51 50.91158 4.27612 4000 ft 216 kts 266°
2026-05-08 08:51 50.90713 4.25388 4003 ft 214 kts 234°
2026-05-08 08:52 50.89576 4.23946 3999 ft 211 kts 199°
2026-05-08 08:52 50.88141 4.23742 4002 ft 209 kts 173°
2026-05-08 08:52 50.86701 4.24031 3999 ft 209 kts 172°
2026-05-08 08:52 50.85260 4.24340 3999 ft 209 kts 171°
2026-05-08 08:53 50.83935 4.25162 4003 ft 206 kts 140°
2026-05-08 08:53 50.83150 4.27017 4000 ft 206 kts 105°
2026-05-08 08:53 50.83075 4.29224 4008 ft 192 kts 88°
2026-05-08 08:53 50.83146 4.31266 3999 ft 186 kts 88°
2026-05-08 08:54 50.83344 4.33295 3823 ft 188 kts 69°
2026-05-08 08:54 50.84009 4.35038 3527 ft 186 kts 47°
2026-05-08 08:54 50.84938 4.36466 3097 ft 187 kts 45°
2026-05-08 08:54 50.85884 4.37878 2626 ft 188 kts 45°
2026-05-08 08:55 50.86818 4.39286 2182 ft 180 kts 48°
2026-05-08 08:55 50.87578 4.40730 2008 ft 161 kts 53°
2026-05-08 08:55 50.88312 4.42110 1378 ft 170 kts 50°